[[{"header":{"parameterUnit":"m.s-1","parameterCategory":1,"la1":30.2991,"la2":30.254,"lo1":-89.0895,"lo2":-89.0444,"dy":0.0017,"dx":0.0017,"nx":28,"ny":28,"refTime":"2024-05-03T03:00:00:Z","depth":0,"parameterNumber":2,"parameterNumberName":"U-component_of_WINDS"},"data":[0,0,0,0,0,0,0,0,0,0,0,0,0,0,0,0,0,0,0,0,0,0,0,0,0,0,0,0,0,0,0,0,0,0,0,0,0,0,0,0,0,0,0,0,0,0,0,0,0,0,0,0,0,0,0,0,0,0,-0.1043,-0.1042,0,-0.0996,-0.0995,-0.0995,-0.0986,-0.0987,-0.0987,-0.0988,-0.094,-0.0939,-0.0937,0,0,0,0,0,0,0,0,0,0,0,0,0,-0.1126,-0.1125,-0.1043,-0.1042,-0.1041,-0.0996,-0.0995,-0.0994,-0.0986,-0.0987,-0.0987,-0.0988,-0.0941,-0.0939,-0.0937,0,0,0,0,0,0,0,0,0,0,0,0,0,-0.1086,-0.1124,-0.1043,-0.1032,-0.103,-0.0996,-0.0995,-0.0994,-0.0986,-0.0987,-0.0987,-0.0988,-0.0942,-0.0939,-0.0937,-0.091,0,0,-0.0929,-0.0928,0,0,0,0,0,0,0,0,-0.1088,-0.1083,-0.1034,-0.1033,-0.1031,-0.0997,-0.1007,-0.0966,-0.0986,-0.1003,-0.0988,-0.0988,-0.0959,-0.0955,-0.0945,-0.0908,-0.0906,-0.0929,-0.0928,-0.0927,-0.0926,0,0,0,0,0,0,0,-0.1091,-0.1085,-0.1024,-0.1033,-0.1031,-0.103,-0.1025,-0.0999,-0.0978,-0.1002,-0.1001,-0.0995,-0.0958,-0.0947,-0.0944,-0.0905,-0.0929,-0.0927,-0.0926,-0.0925,-0.0844,-0.0844,0,0,0,0,0,0,-0.1096,-0.1087,-0.1026,-0.1023,-0.1061,-0.1028,-0.1022,-0.1008,-0.0979,-0.0975,-0.0995,-0.0995,-0.0951,-0.0947,-0.0942,-0.091,-0.0927,-0.0924,-0.0923,-0.0845,-0.0844,-0.0843,0,0,0,0,0,0,-0.1097,-0.109,-0.1027,-0.1055,-0.1047,-0.1026,-0.101,-0.1006,-0.0996,-0.0973,-0.097,-0.0988,-0.0952,-0.0946,-0.0918,-0.0908,-0.0923,-0.0921,-0.0846,-0.0845,-0.0844,-0.0844,0,0,0,0,0,0,-0.11,-0.1091,-0.108,-0.1054,-0.1045,-0.1004,-0.1009,-0.1005,-0.0991,-0.0991,-0.0966,-0.0962,-0.0952,-0.0922,-0.0916,-0.0905,-0.0919,-0.0847,-0.0845,-0.0844,-0.0845,-0.0843,-0.0841,0,0,0,0,0,-0.1103,-0.1082,-0.108,-0.1072,-0.1031,-0.1003,-0.0998,-0.0986,-0.099,-0.098,-0.0966,-0.0963,-0.091,-0.0919,-0.0912,-0.09,-0.0847,-0.0846,-0.0844,-0.0845,-0.0843,-0.0841,0,0,0,0,0,0,-0.1108,-0.1079,-0.1076,-0.1046,-0.1027,-0.1002,-0.0988,-0.0984,-0.0964,-0.0965,-0.0951,-0.0945,-0.0919,-0.0907,-0.0918,-0.0873,-0.0879,-0.0876,-0.0882,-0.088,-0.0878,-0.0882,-0.0917,0,0,0,0,0,-0.1105,-0.1085,-0.106,-0.1037,-0.1027,-0.1009,-0.0997,-0.0989,-0.0969,-0.0961,-0.0945,-0.0926,-0.0905,-0.0892,-0.0871,-0.0842,-0.0837,-0.0831,-0.0829,-0.0828,-0.0826,-0.081,-0.0807,-0.0838,-0.0838,-0.0838,0,0,-0.11,-0.1082,-0.107,-0.1037,-0.1022,-0.1001,-0.1003,-0.0981,-0.0966,-0.0958,-0.0931,-0.0919,-0.0897,-0.0869,-0.0855,-0.0858,-0.0816,-0.0826,-0.0825,-0.0824,-0.0808,-0.0806,-0.0803,-0.0837,-0.0837,-0.0838,0,0,-0.108,-0.1064,-0.1043,-0.1027,-0.1004,-0.0992,-0.0987,-0.0962,-0.0953,-0.0926,-0.092,-0.0902,-0.0866,-0.0851,-0.0838,-0.0813,-0.0809,-0.0806,-0.0798,-0.0783,-0.0781,-0.0778,-0.077,-0.0767,-0.0804,-0.0804,-0.0804,0,-0.1077,-0.1046,-0.1032,-0.1011,-0.0997,-0.0989,-0.0967,-0.0953,-0.0924,-0.0915,-0.0918,-0.0872,-0.0857,-0.0826,-0.0819,-0.0809,-0.0803,-0.0809,-0.0782,-0.078,-0.0777,-0.0769,-0.0766,-0.0804,-0.0804,-0.0804,-0.0804,0,-0.1043,-0.1021,-0.1007,-0.0979,-0.0963,-0.0942,-0.0926,-0.0912,-0.0905,-0.0893,-0.0866,-0.0847,-0.0823,-0.0815,-0.0808,-0.0782,-0.0784,-0.0785,-0.079,-0.0775,-0.0767,-0.0763,-0.0803,-0.0804,-0.0804,-0.0804,0,0,-0.1026,-0.0991,-0.0986,-0.0973,-0.0946,-0.0929,-0.0908,-0.0884,-0.0872,-0.0852,-0.0834,-0.0804,-0.0804,-0.079,-0.0781,-0.0768,-0.075,-0.077,-0.0769,-0.0768,-0.0721,-0.0721,-0.0718,-0.0747,-0.0747,-0.0746,-0.0723,0,-0.1004,-0.0964,-0.0952,-0.0919,-0.0899,-0.0891,-0.0872,-0.0854,-0.0842,-0.0824,-0.0811,-0.079,-0.0791,-0.0783,-0.0769,-0.0755,-0.074,-0.0756,-0.0731,-0.073,-0.0737,-0.0714,-0.0714,-0.0693,-0.072,-0.0719,-0.0719,0,-0.0972,-0.0952,-0.0917,-0.0894,-0.0885,-0.0868,-0.0845,-0.0827,-0.0807,-0.0799,-0.0783,-0.0776,-0.0753,-0.0759,-0.0728,-0.074,-0.0728,-0.072,-0.0719,-0.0716,-0.0724,-0.0711,-0.0686,-0.0683,-0.0714,-0.0714,-0.0714,0,-0.0964,-0.0928,-0.0903,-0.0892,-0.0863,-0.0852,-0.0839,-0.0819,-0.0806,-0.0786,-0.0777,-0.0754,-0.0742,-0.0725,-0.0712,-0.0718,-0.0683,-0.0688,-0.0676,-0.0677,-0.067,-0.067,-0.0643,-0.0661,-0.0661,-0.0661,-0.0661,0,-0.0941,-0.0921,-0.0899,-0.0883,-0.086,-0.0846,-0.0823,-0.081,-0.0792,-0.0775,-0.0766,-0.075,-0.0733,-0.0715,-0.0704,-0.0681,-0.0675,-0.0668,-0.0666,-0.067,-0.0671,-0.0663,-0.0664,-0.066,-0.0661,-0.0661,-0.0661,0,-0.0928,-0.0913,-0.0885,-0.086,-0.0853,-0.0837,-0.0816,-0.0801,-0.0788,-0.0766,-0.076,-0.0741,-0.0718,-0.0704,-0.0675,-0.0668,-0.0642,-0.064,-0.0649,-0.0648,-0.0638,-0.0639,-0.0605,-0.06,-0.0621,-0.0621,-0.0621,0,-0.0915,-0.0899,-0.0872,-0.0859,-0.0847,-0.0827,-0.0813,-0.0798,-0.0784,-0.0759,-0.0747,-0.0724,-0.0705,-0.067,-0.0654,-0.0632,-0.0629,-0.0619,-0.0626,-0.063,-0.063,-0.0631,-0.063,-0.0618,-0.0618,-0.0617,-0.0617,0,-0.0893,-0.0886,-0.0866,-0.0844,-0.0827,-0.0809,-0.079,-0.078,-0.0763,-0.0747,-0.0724,-0.0709,-0.068,-0.0658,-0.0635,-0.0622,-0.0617,-0.0615,-0.0611,-0.0615,-0.0622,-0.0619,-0.0647,-0.0616,-0.0616,-0.0616,-0.0616,-0.0616,-0.088,-0.0866,-0.0845,-0.0823,-0.0807,-0.079,-0.0775,-0.076,-0.0741,-0.0716,-0.0708,-0.0685,-0.0664,-0.0633,-0.062,-0.0601,-0.0602,-0.0597,-0.0595,-0.0594,-0.0595,-0.0624,-0.0597,-0.0597,-0.0597,-0.0597,-0.0597,0,-0.0859,-0.0845,-0.0825,-0.0799,-0.0782,-0.0778,-0.0757,-0.0743,-0.0722,-0.0704,-0.0685,-0.0659,-0.0637,-0.0619,-0.0596,-0.0585,-0.0582,-0.058,-0.0581,-0.0578,-0.0595,-0.06,-0.0582,-0.0582,-0.0582,-0.0582,-0.0582,-0.0582,-0.0846,-0.0821,-0.0812,-0.0779,-0.0765,-0.0742,-0.073,-0.0715,-0.07,-0.0671,-0.0653,-0.0641,-0.0622,-0.0598,-0.0578,-0.0574,-0.0566,-0.0564,-0.0559,-0.0575,-0.0577,-0.0578,-0.0584,-0.0562,-0.0562,-0.0544,-0.0544,-0.0544]},{"header":{"parameterUnit":"m.s-1","parameterCategory":1,"la1":30.2991,"la2":30.254,"lo1":-89.0895,"lo2":-89.0444,"dy":0.0017,"dx":0.0017,"nx":28,"ny":28,"refTime":"2024-05-03T03:00:00:Z","depth":0,"parameterNumber":3,"parameterNumberName":"V-component_of_WINDS"},"data":[0,0,0,0,0,0,0,0,0,0,0,0,0,0,0,0,0,0,0,0,0,0,0,0,0,0,0,0,0,0,0,0,0,0,0,0,0,0,0,0,0,0,0,0,0,0,0,0,0,0,0,0,0,0,0,0,0,0,0.597,0.597,0,0.5912,0.5911,0.5911,0.587,0.5869,0.5869,0.5869,0.5806,0.5805,0.5804,0,0,0,0,0,0,0,0,0,0,0,0,0,0.6044,0.6043,0.597,0.597,0.5969,0.5912,0.5911,0.5911,0.587,0.5869,0.5869,0.5868,0.5807,0.5805,0.5804,0,0,0,0,0,0,0,0,0,0,0,0,0,0.6001,0.6042,0.5971,0.5942,0.5939,0.5912,0.5911,0.591,0.587,0.5869,0.5869,0.5868,0.5807,0.5805,0.5803,0.58,0,0,0.5797,0.5796,0,0,0,0,0,0,0,0,0.6004,0.5999,0.5947,0.5944,0.594,0.5898,0.5914,0.5873,0.587,0.5896,0.5869,0.5868,0.5837,0.5832,0.5822,0.5797,0.5795,0.5797,0.5796,0.5795,0.5794,0,0,0,0,0,0,0,0.6007,0.6001,0.5947,0.5946,0.5942,0.5931,0.5924,0.5906,0.587,0.5893,0.589,0.5884,0.5835,0.5825,0.5821,0.5794,0.5797,0.5795,0.5794,0.5793,0.5763,0.5764,0,0,0,0,0,0,0.6015,0.6004,0.5949,0.5945,0.5972,0.593,0.5923,0.5912,0.587,0.5863,0.5885,0.5882,0.5828,0.5823,0.5818,0.5812,0.5795,0.5793,0.5792,0.5763,0.5763,0.5764,0,0,0,0,0,0,0.6016,0.601,0.5951,0.5974,0.5965,0.5929,0.5917,0.5911,0.59,0.5863,0.5856,0.5881,0.5828,0.5821,0.5805,0.581,0.5792,0.579,0.5762,0.5763,0.5763,0.5801,0,0,0,0,0,0,0.6019,0.6011,0.601,0.5974,0.5964,0.594,0.5918,0.591,0.5897,0.5894,0.5858,0.5851,0.5827,0.5809,0.5803,0.5807,0.5788,0.5762,0.5762,0.5763,0.5799,0.5803,0.5806,0,0,0,0,0,0.6021,0.6022,0.601,0.6004,0.5963,0.5941,0.5935,0.5908,0.5898,0.5896,0.5872,0.5852,0.581,0.5807,0.5801,0.5804,0.5761,0.5762,0.5763,0.5797,0.5802,0.5806,0,0,0,0,0,0,0.6059,0.6017,0.6003,0.5993,0.5971,0.5934,0.5931,0.5913,0.5893,0.589,0.5856,0.5848,0.5836,0.5818,0.5816,0.5799,0.5783,0.5783,0.5811,0.5815,0.5818,0.5824,0.5787,0,0,0,0,0,0.6066,0.6053,0.6016,0.601,0.6,0.5968,0.5957,0.5938,0.5913,0.5904,0.5878,0.5855,0.5836,0.5824,0.5805,0.5796,0.5787,0.5794,0.5798,0.5801,0.5801,0.5795,0.5798,0.5767,0.5767,0.5767,0,0,0.6081,0.6056,0.605,0.6018,0.5998,0.5984,0.596,0.5946,0.5936,0.5901,0.5885,0.5866,0.5837,0.5824,0.5818,0.5809,0.5808,0.5802,0.5805,0.5803,0.5797,0.58,0.5802,0.5768,0.5767,0.5767,0,0,0.6101,0.6081,0.6074,0.6055,0.6026,0.6005,0.6003,0.5969,0.5955,0.5938,0.5912,0.5898,0.5867,0.5847,0.5833,0.5846,0.5827,0.584,0.5858,0.5853,0.5855,0.5857,0.5862,0.5865,0.584,0.584,0.5841,0,0.6123,0.6102,0.6073,0.6061,0.6047,0.6016,0.6009,0.5991,0.5957,0.5949,0.5939,0.5899,0.5877,0.586,0.5864,0.5853,0.585,0.5845,0.5857,0.5859,0.5861,0.5865,0.5867,0.5842,0.5842,0.5842,0.5842,0,0.613,0.6116,0.6113,0.6083,0.6069,0.6059,0.6028,0.6017,0.5999,0.5978,0.5961,0.5934,0.5909,0.5903,0.5885,0.5883,0.5879,0.5864,0.5848,0.5866,0.587,0.5871,0.5845,0.5844,0.5844,0.5843,0,0,0.6173,0.6126,0.6126,0.6112,0.6078,0.6066,0.6054,0.603,0.6022,0.5999,0.5989,0.5963,0.5949,0.5933,0.5912,0.5907,0.5919,0.5892,0.5891,0.5899,0.5917,0.593,0.5932,0.5906,0.5906,0.5906,0.592,0,0.6189,0.6168,0.6141,0.6129,0.6116,0.6085,0.6075,0.6053,0.6033,0.6018,0.5994,0.5977,0.5959,0.595,0.5944,0.5919,0.5923,0.5918,0.5896,0.5896,0.5906,0.5934,0.5947,0.5961,0.5921,0.5921,0.5921,0,0.6204,0.6185,0.6172,0.6139,0.6132,0.6124,0.61,0.6086,0.6059,0.6045,0.6027,0.6005,0.599,0.5975,0.5955,0.5953,0.5942,0.5928,0.5928,0.5926,0.5911,0.5934,0.5965,0.5967,0.5923,0.5923,0.5923,0,0.6239,0.6208,0.6197,0.6185,0.6146,0.6141,0.6125,0.6098,0.6085,0.6064,0.6055,0.6032,0.6019,0.6002,0.5973,0.5965,0.5956,0.5939,0.5944,0.5945,0.5945,0.5946,0.5976,0.5936,0.5936,0.5936,0.5936,0,0.626,0.6253,0.6212,0.6205,0.6196,0.6165,0.6157,0.6138,0.6114,0.6102,0.6073,0.6063,0.6025,0.601,0.5987,0.5974,0.5969,0.5956,0.5951,0.596,0.5962,0.5953,0.5952,0.5936,0.5936,0.5936,0.5936,0,0.6298,0.6269,0.6255,0.6219,0.621,0.6205,0.6174,0.6166,0.6144,0.6129,0.6124,0.6089,0.607,0.6039,0.601,0.5995,0.5987,0.5976,0.5996,0.5993,0.6001,0.6001,0.6028,0.603,0.5988,0.5988,0.5989,0,0.6314,0.6308,0.6272,0.6262,0.6247,0.6232,0.6219,0.6187,0.6175,0.6144,0.614,0.6118,0.6099,0.6069,0.6041,0.6019,0.6009,0.6019,0.6005,0.6015,0.601,0.6012,0.6011,0.6023,0.6024,0.6025,0.6025,0,0.6346,0.6332,0.6315,0.6293,0.6279,0.626,0.624,0.6233,0.6197,0.6184,0.6165,0.615,0.6121,0.61,0.6074,0.6055,0.6034,0.603,0.603,0.604,0.6052,0.6047,0.6007,0.6029,0.6029,0.6029,0.6028,0.6028,0.6374,0.6368,0.6341,0.6323,0.6305,0.6286,0.6277,0.6254,0.6237,0.6212,0.6193,0.6175,0.6148,0.6111,0.6094,0.6078,0.6069,0.6069,0.6069,0.607,0.6074,0.6054,0.6073,0.6073,0.6073,0.6072,0.6072,0,0.6405,0.6387,0.6371,0.6343,0.6329,0.6311,0.6287,0.6276,0.6261,0.6237,0.622,0.6197,0.6176,0.6146,0.6123,0.6117,0.6106,0.6112,0.6113,0.6109,0.6083,0.6086,0.6121,0.6121,0.6121,0.6121,0.6121,0.612,0.642,0.6409,0.6392,0.6371,0.6352,0.6335,0.6323,0.6306,0.6287,0.6263,0.6246,0.6227,0.6201,0.6176,0.6156,0.6147,0.6141,0.6149,0.6138,0.6115,0.6111,0.6106,0.6109,0.6148,0.6148,0.6165,0.6166,0.6166]}]]